Wind_Speed
17 17 16 14 11 10 9 9 8 7 7 6 5 5 6 8 10 10 12 12 12 12 12 11 10 9 9 8 7 7 7 7 6 6 5 6 6 6 6 7 7 7 7
17 16 16 13 11 9 8 8 7 7 6 6 5 4 6 7 8 10 10 10 11 11 12 11 11 10 10 10 9 9 9 9 8 8 7 7 7 7 7 8 8 8 8
16 16 15 13 10 9 8 7 7 7 6 6 6 5 5 6 7 8 9 9 10 11 12 12 11 11 11 11 10 10 10 10 10 10 9 9 8 8 8 9 8 8 8
16 16 14 11 10 9 8 7 7 7 7 6 6 4 4 5 6 7 9 10 11 11 12 12 11 11 10 10 11 11 11 11 11 11 11 11 10 10 10 10 10 10 10
15 14 12 10 9 8 8 7 7 7 7 6 6 5 5 5 6 8 9 10 11 12 12 12 12 12 12 11 11 12 12 12 12 12 12 12 12 12 12 12 12 12 11
14 12 11 10 9 8 7 7 7 7 6 6 6 5 5 6 7 8 10 11 11 12 13 13 13 13 13 13 13 13 12 13 13 13 13 13 13 14 13 14 14 13 13
14 12 11 10 9 8 8 7 7 7 6 6 6 6 6 7 7 8 10 12 12 13 13 13 13 13 14 14 14 14 14 14 14 14 15 15 15 15 15 15 15 15 15
14 12 11 9 8 8 8 7 7 7 7 7 7 7 7 8 7 8 9 11 12 12 14 14 14 14 14 14 14 14 15 15 15 15 16 16 16 16 16 16 17 17 17
12 11 10 10 9 8 8 7 7 8 7 7 6 7 7 8 7 9 9 10 11 12 12 13 14 15 15 15 15 16 16 17 17 17 17 17 18 17 17 18 18 18 19
12 10 9 10 9 9 8 8 8 8 7 6 6 6 7 7 7 8 9 10 10 11 12 12 13 14 15 16 16 16 17 17 18 18 19 19 19 20 20 19 20 20 20
11 10 9 9 9 8 9 8 8 8 7 7 7 7 8 8 8 8 9 10 11 12 12 14 14 15 16 16 17 17 18 18 19 20 20 20 21 21 21 21 21 21 22
9 10 10 9 9 9 10 10 9 8 8 8 8 9 9 9 9 10 10 10 10 11 12 13 14 14 16 17 18 19 18 19 19 20 21 20 21 21 22 21 21 21 22
9 10 11 11 10 10 11 11 11 10 10 9 9 9 10 10 10 10 10 10 10 11 13 13 13 14 16 17 18 19 19 19 19 19 20 21 22 21 22 21 22 23 24
11 11 11 12 12 12 12 12 11 11 11 11 10 10 11 11 11 11 11 11 11 12 12 13 14 15 17 18 18 18 19 19 19 19 20 22 22 22 22 23 24 25 26
14 14 14 14 14 14 13 13 13 12 12 12 12 12 12 11 11 12 12 12 12 12 13 14 15 16 17 18 18 18 19 19 20 21 21 21 22 22 23 24 25 27 28
17 16 16 15 15 15 14 14 14 14 13 13 13 13 13 13 13 13 13 12 12 13 14 15 16 16 17 18 18 19 19 20 20 21 22 23 24 24 25 26 27 28 29
19 17 17 17 16 16 15 15 15 15 14 14 14 15 14 14 14 13 14 14 13 13 13 14 15 16 17 18 19 19 19 20 20 21 22 24 25 26 27 27 28 29 29
20 18 18 19 18 17 16 16 16 16 15 15 15 15 15 14 14 14 14 15 15 16 16 16 17 18 18 19 19 20 21 21 22 22 24 24 25 26 27 27 28 29 30
22 20 18 18 18 18 18 18 18 17 17 17 16 16 16 16 16 16 16 17 17 17 17 17 18 19 19 19 20 21 22 22 22 23 24 25 26 27 28 28 28 30 30
22 22 20 20 20 20 19 19 19 19 19 18 18 17 17 17 18 18 18 18 18 18 18 18 19 19 19 20 20 21 21 22 22 24 24 25 26 26 27 28 29 30 31
23 22 22 21 21 21 21 21 20 20 20 20 19 19 19 19 19 19 19 20 19 19 19 19 19 19 20 20 20 20 21 22 23 24 24 25 26 27 27 29 30 30 30
22 23 23 23 23 23 23 23 23 22 22 22 21 21 20 20 21 21 20 20 20 21 21 21 20 20 20 21 20 21 22 23 24 25 26 27 27 28 28 29 29 29 30
24 24 25 25 25 24 24 24 24 24 24 24 23 22 22 21 21 21 21 21 21 22 22 21 21 21 21 21 22 22 22 23 24 25 26 27 27 28 29 28 28 30 30
27 28 27 27 26 26 26 26 25 25 25 25 24 24 23 23 23 23 22 22 22 22 22 22 22 22 21 22 22 23 23 24 24 25 25 25 26 28 28 28 29 29 30
29 29 28 27 27 27 27 26 26 25 25 25 25 25 24 24 24 23 23 22 22 22 22 22 22 22 22 22 23 23 23 23 24 25 25 26 27 28 28 28 28 29 30
29 29 28 28 28 28 28 27 26 26 25 25 24 24 24 24 23 23 22 22 23 23 23 23 22 22 22 23 24 24 23 24 24 25 26 27 27 27 27 28 29 30 31
Wind_Direction
340 341 338 331 328 328 330 329 326 323 324 324 298 266 246 236 223 218 218 216 215 215 220 221 223 226 229 233 238 243 244 248 255 262 262 259 263 266 268 270 267 268 265
340 340 339 334 329 324 322 323 317 319 322 326 315 281 254 238 225 219 214 215 215 219 223 222 223 228 232 236 239 243 245 248 251 255 256 257 260 263 269 269 267 266 266
337 337 339 332 329 324 319 317 313 319 319 315 310 290 264 242 232 221 219 221 222 221 224 227 228 232 236 239 242 243 246 250 251 251 253 254 258 261 264 266 266 265 264
333 334 333 329 327 327 324 318 312 311 309 304 304 299 282 252 239 230 226 225 224 226 228 230 232 235 241 244 247 249 250 252 253 252 253 254 257 260 262 261 262 263 264
328 330 330 325 324 324 321 316 316 313 306 304 299 294 281 254 241 235 234 232 230 230 230 235 237 240 245 248 251 250 250 252 254 255 256 257 258 260 260 260 262 263 265
327 326 326 327 327 316 309 308 310 312 308 301 296 294 278 259 251 243 239 236 236 237 235 241 239 242 247 249 252 252 250 252 254 257 258 258 260 262 260 259 261 263 265
321 322 322 323 327 322 308 305 305 300 299 293 284 283 276 269 261 252 243 239 239 240 239 241 239 245 247 249 251 253 252 254 256 258 259 259 260 261 262 263 262 263 264
318 319 321 322 323 321 317 305 308 302 295 289 282 278 277 279 264 256 250 245 245 244 245 243 244 245 248 251 253 253 253 256 260 261 260 258 259 261 265 264 264 264 266
318 324 327 328 326 321 318 312 301 301 301 289 286 278 282 280 265 255 258 250 247 247 244 245 246 251 252 255 254 253 255 259 261 259 258 259 259 262 266 266 264 266 267
314 319 323 327 331 329 320 313 306 299 299 292 287 280 283 285 278 258 259 254 253 253 254 253 254 255 258 258 256 257 258 260 260 261 259 260 261 262 266 267 267 267 268
313 330 333 330 331 333 330 321 315 305 297 294 288 287 282 281 279 270 264 260 258 255 254 257 261 261 261 260 258 261 262 262 262 261 262 263 264 265 266 267 267 267 269
319 330 335 332 334 334 328 323 317 311 304 295 290 290 291 291 285 278 271 270 269 260 257 260 261 261 262 261 261 264 263 263 264 263 263 264 265 267 268 268 269 270 271
309 322 324 326 331 331 326 319 314 309 308 301 290 290 291 290 288 282 275 274 273 268 264 263 262 263 264 266 267 264 261 263 264 263 264 264 266 268 268 270 272 273 274
310 314 317 320 322 323 322 319 315 312 308 306 299 294 293 290 285 282 278 277 277 271 267 266 264 267 269 271 270 267 265 266 264 264 264 265 266 269 269 272 276 277 276
309 308 309 311 312 313 314 313 312 311 307 303 301 300 297 294 292 285 279 277 277 277 273 273 272 270 271 272 271 270 268 268 268 267 266 266 267 270 271 275 277 279 279
302 300 301 306 308 309 309 308 309 307 304 301 299 298 295 290 291 289 285 282 281 281 279 276 276 273 273 272 270 270 270 271 270 270 270 269 271 272 273 275 278 280 281
298 296 298 303 304 303 303 305 305 303 301 297 295 295 292 287 285 285 283 282 281 283 283 280 280 279 279 276 273 271 271 272 271 271 272 273 275 275 276 278 280 283 284
293 294 296 298 297 298 299 301 300 300 298 296 292 292 289 287 284 284 284 284 283 283 282 280 280 282 283 280 276 273 271 272 275 276 277 277 278 279 281 282 284 286 287
292 292 293 295 296 296 297 297 297 297 296 295 293 292 290 288 287 287 286 285 285 285 284 282 282 281 282 282 278 274 272 275 276 277 278 280 281 282 282 284 286 288 288
287 289 290 291 293 293 292 293 293 293 293 292 290 289 288 288 287 286 285 284 284 284 283 283 282 282 281 281 280 276 275 276 278 280 281 281 283 282 284 286 287 289 290
284 285 287 288 290 291 290 290 290 291 290 290 289 288 286 285 284 284 284 283 282 282 281 282 282 282 283 283 281 279 279 280 281 281 281 283 283 283 286 289 289 289 289
284 287 287 289 290 290 289 288 288 289 288 288 286 286 284 283 282 282 283 283 282 281 281 282 283 283 284 284 281 282 284 284 283 282 283 286 286 286 287 290 291 291 292
284 286 287 288 288 289 289 289 287 286 286 286 285 285 284 283 282 281 281 282 283 282 281 282 283 283 283 283 283 284 285 284 283 284 286 287 288 288 289 290 291 293 294
283 285 287 288 288 288 288 288 287 285 284 284 282 282 281 281 281 281 280 280 282 282 282 284 284 284 283 283 283 284 285 285 284 284 287 289 290 291 293 293 294 295 296
280 282 284 286 286 287 288 287 285 283 283 283 283 281 279 279 279 279 279 280 280 281 282 283 284 285 284 284 284 284 285 285 286 288 289 291 292 293 294 295 297 298 299
278 280 282 284 285 285 285 283 283 282 282 282 282 281 281 279 278 278 278 280 280 281 281 281 282 281 283 284 285 286 287 287 288 290 290 291 293 294 294 296 297 298 299
Height
5894 5891 5888 5886 5884 5883 5882 5881 5880 5878 5877 5876 5876 5876 5876 5877 5878 5880 5881 5883 5885 5886 5888 5889 5890 5892 5892 5893 5894 5894 5895 5895 5895 5895 5895 5895 5895 5895 5895 5895 5895 5895 5894
5893 5889 5886 5884 5882 5881 5880 5880 5879 5878 5876 5875 5875 5875 5875 5875 5876 5878 5879 5881 5883 5884 5886 5887 5888 5889 5890 5891 5892 5892 5893 5893 5894 5894 5894 5894 5895 5894 5894 5894 5893 5893 5893
5891 5888 5886 5884 5882 5881 5879 5878 5877 5876 5876 5875 5874 5873 5874 5874 5875 5876 5877 5879 5880 5882 5883 5884 5885 5887 5888 5889 5889 5890 5890 5891 5892 5892 5892 5893 5893 5893 5893 5892 5892 5891 5891
5890 5888 5885 5883 5881 5880 5878 5877 5876 5875 5875 5874 5873 5872 5872 5873 5873 5874 5875 5876 5878 5879 5881 5882 5883 5884 5885 5886 5887 5887 5888 5888 5889 5889 5890 5890 5891 5891 5891 5890 5890 5890 5889
5888 5886 5884 5882 5880 5879 5877 5876 5875 5874 5873 5872 5872 5871 5871 5871 5871 5872 5873 5874 5875 5877 5878 5879 5880 5881 5882 5883 5884 5884 5885 5885 5886 5887 5887 5887 5888 5888 5888 5888 5888 5887 5887
5887 5885 5883 5880 5879 5877 5876 5875 5874 5873 5872 5871 5870 5870 5869 5869 5869 5870 5870 5871 5872 5873 5875 5876 5877 5878 5879 5880 5880 5881 5882 5882 5883 5883 5884 5884 5885 5885 5885 5885 5885 5884 5884
5885 5883 5881 5879 5877 5875 5874 5873 5872 5871 5870 5869 5869 5868 5868 5867 5867 5868 5868 5869 5870 5870 5872 5873 5874 5875 5875 5876 5877 5877 5878 5879 5879 5880 5880 5880 5881 5881 5881 5881 5881 5881 5881
5882 5880 5878 5877 5875 5874 5872 5871 5870 5869 5868 5867 5867 5866 5866 5865 5865 5866 5866 5866 5867 5868 5869 5870 5871 5871 5872 5873 5873 5874 5874 5875 5875 5876 5876 5876 5876 5877 5877 5877 5877 5877 5877
5879 5878 5876 5875 5873 5872 5871 5869 5868 5868 5866 5865 5865 5864 5864 5863 5863 5863 5863 5863 5864 5864 5865 5866 5867 5868 5868 5869 5869 5870 5870 5871 5871 5871 5871 5872 5872 5872 5872 5872 5872 5872 5872
5877 5875 5874 5873 5872 5870 5869 5868 5867 5866 5865 5864 5863 5862 5862 5861 5861 5861 5861 5861 5861 5862 5862 5863 5863 5864 5864 5865 5865 5865 5866 5866 5866 5867 5867 5867 5867 5867 5867 5867 5867 5867 5867
5874 5873 5872 5871 5870 5869 5867 5866 5865 5863 5862 5862 5861 5860 5860 5859 5859 5858 5858 5858 5858 5858 5859 5859 5860 5860 5860 5860 5860 5861 5861 5861 5862 5862 5862 5862 5862 5862 5862 5862 5862 5861 5861
5872 5871 5870 5869 5868 5867 5866 5864 5863 5861 5860 5860 5859 5858 5858 5857 5856 5856 5855 5855 5855 5855 5855 5856 5856 5856 5856 5856 5856 5856 5856 5856 5857 5857 5857 5857 5857 5857 5856 5856 5856 5855 5855
5869 5869 5868 5866 5865 5864 5863 5862 5861 5859 5858 5857 5856 5856 5855 5854 5853 5853 5852 5852 5852 5852 5852 5852 5852 5852 5852 5852 5851 5851 5851 5851 5851 5851 5851 5851 5851 5851 5850 5850 5850 5849 5848
5866 5866 5865 5864 5863 5862 5861 5860 5858 5857 5856 5854 5853 5853 5852 5851 5850 5850 5849 5849 5848 5848 5848 5848 5847 5847 5847 5847 5847 5846 5846 5846 5846 5846 5846 5845 5845 5845 5844 5844 5843 5842 5841
5862 5863 5862 5861 5860 5858 5858 5857 5856 5854 5853 5852 5851 5850 5849 5848 5847 5846 5846 5845 5845 5844 5844 5844 5843 5843 5843 5842 5842 5842 5841 5841 5841 5840 5840 5840 5839 5839 5838 5838 5837 5836 5834
5859 5858 5858 5857 5856 5855 5854 5853 5852 5851 5850 5849 5848 5847 5846 5844 5844 5843 5842 5841 5841 5840 5840 5840 5839 5839 5838 5838 5837 5837 5836 5836 5835 5835 5834 5834 5833 5833 5832 5831 5830 5828 5827
5855 5855 5854 5853 5852 5852 5851 5850 5848 5847 5846 5845 5844 5843 5842 5841 5840 5839 5839 5838 5837 5837 5836 5836 5835 5834 5834 5833 5832 5831 5831 5830 5830 5829 5829 5828 5827 5826 5825 5824 5822 5820 5819
5851 5850 5849 5849 5848 5847 5846 5845 5844 5843 5842 5841 5840 5839 5838 5837 5836 5835 5835 5834 5833 5832 5832 5831 5831 5830 5829 5827 5826 5826 5825 5824 5824 5823 5822 5821 5820 5819 5818 5816 5814 5813 5811
5847 5846 5845 5844 5843 5843 5842 5841 5840 5838 5838 5837 5836 5835 5834 5833 5832 5831 5830 5829 5829 5828 5827 5826 5826 5825 5823 5822 5821 5820 5819 5819 5818 5817 5816 5815 5814 5812 5810 5809 5807 5804 5802
5842 5841 5840 5839 5838 5838 5837 5836 5835 5834 5833 5832 5831 5830 5829 5828 5827 5826 5825 5824 5824 5823 5822 5821 5820 5819 5818 5816 5815 5814 5813 5813 5812 5811 5809 5808 5806 5805 5803 5801 5799 5797 5794
5836 5835 5834 5833 5833 5832 5832 5831 5829 5828 5827 5827 5826 5825 5824 5823 5822 5821 5820 5819 5818 5817 5816 5815 5815 5814 5812 5811 5809 5808 5807 5806 5805 5803 5802 5800 5799 5797 5795 5793 5790 5788 5785
5829 5829 5827 5827 5827 5826 5825 5824 5823 5823 5821 5821 5820 5819 5819 5818 5816 5815 5814 5813 5812 5811 5810 5809 5808 5807 5806 5805 5803 5802 5801 5799 5798 5796 5795 5793 5791 5789 5787 5784 5782 5779 5777
5823 5822 5821 5821 5820 5820 5819 5818 5817 5816 5815 5814 5813 5812 5812 5811 5810 5809 5808 5807 5806 5805 5804 5803 5802 5801 5800 5798 5797 5796 5794 5793 5791 5789 5787 5785 5783 5781 5779 5776 5774 5771 5768
5816 5816 5816 5815 5813 5813 5812 5811 5810 5809 5809 5808 5807 5806 5805 5804 5803 5802 5801 5800 5799 5798 5797 5796 5795 5794 5793 5791 5790 5788 5787 5786 5784 5782 5780 5778 5776 5774 5771 5768 5765 5762 5759
5809 5809 5808 5808 5807 5806 5805 5804 5803 5802 5801 5800 5799 5798 5797 5797 5796 5795 5795 5794 5793 5792 5791 5790 5788 5787 5786 5785 5783 5782 5780 5778 5777 5775 5773 5771 5768 5766 5763 5760 5757 5754 5750
5801 5801 5801 5800 5799 5798 5797 5797 5796 5795 5794 5793 5792 5791 5790 5790 5789 5788 5788 5787 5786 5785 5784 5783 5782 5780 5779 5778 5776 5775 5773 5771 5770 5768 5765 5763 5760 5758 5755 5752 5749 5746 5742